BREEZE-M DEB, 38576

Orbit data source: Space-Track

BREEZE-M DEB, 38576 is space debris in HEO originally from a launch on Fri, 14 Mar 2008 UTC launched from the Tyuratam Missile And Space Complex (TTMTR). Debris objects in space refer to the collection of defunct objects orbiting the Earth. Examples of debris include non-operational satellites, rocket bodies, and fragments generated from explosions, collisions, or faulty payload assembly.

Loading next visibility...
Identifier
38576, 2008-011X
Orbit
HEO
Country
Flag of CISCIS
Related business
Manufacturer
Unknown
Mission
Spacecraft
Bus & Motor
Unknown
Mass
Unknown
Launch date (UTC)
2008-03-14 (18 years ago)
Launch vehicle
Unknown
Launch site
Tyuratam Missile And Space Complex (TTMTR)
Object type
Payload
Rocket body
Debris
Shape & HBR
Unknown shape, 0.3 m
Radar Cross Section
Medium (>0.1 m² and <1 m²)

Expand to show TLE details & history
Last TLE update: 1 week ago

TLE from 1 week ago
0 BREEZE-M DEB
1 38576U 08011X   26167.00915605  .00012289  00000-0  69119-2 0  9997
2 38576  49.1634  79.3352 6353627 103.5341 330.2049  3.47686782151252
Epoch: 2026-06-16T00:13Z
TLE epoch observation values (Epoch: 2026-06-16T00:13:11.082Z)
Latitude
-0.00003°
Longitude
171.75145°
Altitude
6,512.268 km
Speed
6.34 km/s
True Right ascension
05h 17m 20s
True Declination
0° 00' 00"
Sunlit
Object was in daylight at epoch
Visualization orbit readout
Latitude
Unknown
Longitude
Unknown
Altitude
Unknown
Speed
Unknown
Apparent Right ascension
Unknown
Apparent Declination
Unknown
Sunlit
N/A
Visualization observer readout
Local Sidereal Time
00:39:44
Azimuth
Unknown
Elevation
Unknown
Doppler factor
Unknown
Orbital elements
Apogee altitude
23,722.435 km
Perigee altitude
333.396 km
Semi-major axis
18,406.053 km
Eccentricity
0.63536
Inclination
49.1634°
RAAN
79.3352°
Arg. of periapsis
103.5341°
True anomaly
256.42339°
Mean anomaly
330.2049°
Eccentric anomaly
298.08902°
Mean motion
0.86916 °/min
Orbital period
414.19 mins
BSTAR
0.0069119
Loading maneuver chart data...
Computing Atmospheric mass density...
Loading historical data...
Loading historical data...
Loading historical data...
Loading historical data...
Loading historical data...
Loading historical data...
Loading historical data...

Documentation

Showing up to 5 results
|